星链-11399 (STARLINK-11399)

导读 | 星芒AI

STARLINK-11399 是 SpaceX Starlink 项目中的一颗低轨通信卫星,属于第 24 批 Starlink 卫星发射任务的一部分。该卫星于 2022 年 11 月 30 日由猎鹰 9 号火箭从美国卡纳维拉尔角发射升空。Starlink 计划旨在通过部署数千颗卫星,为全球提供高速、低延迟的互联网服务,尤其关注偏远和网络覆盖不足的地区。STARLINK-11399 与其他 Starlink 卫星一样,运行在约 550 公里的轨道高度,支持全球宽带通信。

基本信息
目录编号:
63063
目录名称:
STARLINK-11399
国际标识:
2025-035M
轨道中心:
EARTH
卫星名称:
星链-11399
卫星全名:
星链-11399 (STARLINK-11399)
卫星状态:
在轨 (已飞行303 天)
发射日期:
2025-02-21 UTC
国别 :
美国 (US)
星等 :
--
轨道信息
数据来源 国际轨道数据
星历时间: 2025-12-21T10:21:11+0800
18小时前
查看轨道信息
半长轴: 6734.491km
偏心率: 0.0001115
轨道倾角: 43.000°
近地点辐角 300.086°
升交点赤经 128.776°
平近点角 59.989°
近地点: 355.603km
远地点: 357.105km
周期: 91.668分钟
每日圈数: 15.708897
详细信息
固有亮度:
5
最大亮度:
2.5
卫星平台:
Starlink V1.0
覆盖范围:
全球
运营商:
太空探索技术公司
运营商所在国:
美国
制造商(研发单位):
太空探索技术公司
制造商所在国:
美国
使用方式:
暂无
卫星简介
Starlink 计划是 SpaceX 推出的全球卫星互联网项目,通过发射低轨道卫星,为全球尤其是偏远地区提供高速、低延迟的互联网服务。自 2019 年起,Starlink 已部署数千颗卫星,旨在缩小全球数字鸿沟,推动互联网普及。该项目还为军事、航空等行业提供通信支持,带来广泛经济效益。
2D轨道图
3D轨道图
轨道高度分析图
轨道倾角分析图
轨道综合分析图
查看轨道综合分析图